[[{"header":{"parameterUnit":"m.s-1","parameterCategory":2,"la1":30.2992,"la2":30.254,"lo1":-89.0895,"lo2":-89.0443,"dy":0.0025,"dx":0.0025,"nx":19,"ny":19,"refTime":"2026-05-08T03:00:00:Z","depth":"0","parameterNumber":2,"parameterNumberName":"U-component_of_CURRENTS"},"data":[0,0,0,0.2501,0.2501,0.2424,0.2423,0.2115,0.2112,0,0,0,0,0,0,0,0,0,0,0,0.2516,0.2516,0.2501,0.2501,0.2424,0.2423,0.2116,0.2112,0,0,0,0,0,0,0,0,0,0,0,0.2516,0.2516,0.2516,0.2501,0.2424,0.2423,0.2116,0.2217,0,0,0,0,0,0,0,0,0,0,0.2313,0.2357,0.2516,0.2516,0.2501,0.2425,0.2423,0.2223,0.221,0.2103,0,0.2116,0,0.2124,0.2091,0.209,0,0,0,0.246,0.2368,0.2372,0.2516,0.2501,0.2425,0.2447,0.2217,0.2202,0.2085,0.2112,0.2102,0.2119,0.2089,0.2087,0.1891,0.1891,0,0,0.2464,0.2464,0.2383,0.2364,0.2507,0.245,0.2445,0.221,0.2186,0.2111,0.2096,0.2114,0.2086,0.2084,0.189,0.1891,0,0,0,0.2504,0.2467,0.2479,0.2375,0.2388,0.2449,0.2443,0.2195,0.2208,0.2093,0.2111,0.2085,0.2081,0.189,0.1891,0.2153,0,0,0,0.2505,0.2494,0.2481,0.2474,0.2395,0.2317,0.2433,0.2224,0.2199,0.2112,0.2084,0.2077,0.189,0.189,0.2146,0.2255,0,0,0,0.2515,0.2493,0.25,0.2476,0.2466,0.2322,0.2319,0.2219,0.221,0.2089,0.2077,0.189,0.189,0.2139,0.2242,0.2345,0,0,0,0.2494,0.25,0.25,0.2501,0.2468,0.2395,0.2321,0.223,0.2133,0.2083,0.189,0.189,0.2137,0.2234,0.2337,0.2294,0.2328,0,0,0.2494,0.25,0.2503,0.2503,0.2502,0.2401,0.2372,0.2227,0.2107,0.1943,0.194,0.2148,0.2241,0.2344,0.233,0.2364,0,0,0,0.2497,0.2518,0.2499,0.2517,0.2453,0.2452,0.2302,0.227,0.2202,0.2064,0.2087,0.2135,0.2193,0.2147,0.2173,0.2145,0.1893,0.1893,0.1893,0.2477,0.2513,0.2531,0.2563,0.2532,0.2465,0.2467,0.2395,0.2234,0.2277,0.2306,0.25,0.2452,0.2471,0.2444,0.2254,0.2255,0.2256,0.2256,0.2519,0.2561,0.2615,0.265,0.2669,0.2645,0.2639,0.261,0.2635,0.2489,0.2533,0.237,0.2516,0.2475,0.2272,0.227,0.2268,0.2266,0.2265,0.2549,0.258,0.2614,0.2705,0.2785,0.2776,0.2865,0.2869,0.2855,0.2932,0.2792,0.2786,0.2787,0.2932,0.2933,0.2934,0.2935,0.2935,0.2936,0.2553,0.2602,0.2639,0.2745,0.2787,0.288,0.298,0.3028,0.3084,0.3053,0.305,0.2833,0.2704,0.272,0.2951,0.2948,0.2946,0.2945,0.2944,0.2582,0.2581,0.2643,0.2674,0.2769,0.2804,0.2948,0.3061,0.3163,0.3199,0.3137,0.3097,0.3,0.2972,0.299,0.3278,0.3278,0.3278,0.3278,0.2557,0.2579,0.2589,0.2614,0.2678,0.275,0.2746,0.2911,0.3129,0.3226,0.3265,0.3109,0.3097,0.2994,0.2967,0.2978,0.3257,0.3257,0.3257,0.2523,0.2545,0.2514,0.2552,0.2608,0.2632,0.2578,0.2679,0.307,0.3256,0.3256,0.3257,0.3021,0.3002,0.2817,0.2781,0.2787,0,0]},{"header":{"parameterUnit":"m.s-1","parameterCategory":2,"la1":30.2992,"la2":30.254,"lo1":-89.0895,"lo2":-89.0443,"dy":0.0025,"dx":0.0025,"nx":19,"ny":19,"refTime":"2026-05-08T03:00:00:Z","depth":"0","parameterNumber":3,"parameterNumberName":"V-component_of_CURRENTS"},"data":[0,0,0,-0.0491,-0.0493,-0.0567,-0.0567,-0.0519,-0.0519,0,0,0,0,0,0,0,0,0,0,0,-0.0448,-0.0449,-0.0491,-0.0494,-0.0567,-0.0567,-0.0519,-0.0519,0,0,0,0,0,0,0,0,0,0,0,-0.0448,-0.0448,-0.0449,-0.0494,-0.0567,-0.0567,-0.0519,-0.0492,0,0,0,0,0,0,0,0,0,0,-0.0436,-0.0414,-0.0448,-0.045,-0.0495,-0.0567,-0.0567,-0.0492,-0.0494,-0.0454,0,-0.0479,0,-0.0515,-0.0515,-0.0515,0,0,0,-0.0465,-0.0413,-0.0454,-0.045,-0.0496,-0.0567,-0.0526,-0.0494,-0.0496,-0.0456,-0.0479,-0.0479,-0.0515,-0.0515,-0.0514,-0.0332,-0.033,0,0,-0.0461,-0.0434,-0.0454,-0.0456,-0.0529,-0.0524,-0.0529,-0.0497,-0.0488,-0.0479,-0.0479,-0.0514,-0.0514,-0.0514,-0.0333,-0.0331,0,0,0,-0.0469,-0.0431,-0.0475,-0.0456,-0.0491,-0.0527,-0.0532,-0.0489,-0.051,-0.0479,-0.0513,-0.0514,-0.0513,-0.0335,-0.0333,-0.0103,0,0,0,-0.0465,-0.0438,-0.0473,-0.0453,-0.0493,-0.0509,-0.0524,-0.0512,-0.0511,-0.0514,-0.0514,-0.0513,-0.0337,-0.0334,-0.0113,-0.0041,0,0,0,-0.0442,-0.0435,-0.0454,-0.0453,-0.0503,-0.0511,-0.0529,-0.0513,-0.0532,-0.0515,-0.0512,-0.0338,-0.0334,-0.0122,-0.0056,0.0095,0,0,0,-0.0397,-0.0412,-0.0453,-0.0459,-0.0503,-0.047,-0.053,-0.0503,-0.048,-0.0514,-0.0337,-0.0333,-0.0125,-0.0065,0.0085,0.0116,0.0163,0,0,-0.039,-0.041,-0.041,-0.045,-0.0411,-0.0458,-0.033,-0.0345,-0.0403,-0.0337,-0.0334,-0.011,-0.0057,0.0093,0.0332,0.0373,0,0,0,-0.0389,-0.038,-0.0376,-0.0367,-0.0364,-0.0252,-0.0276,-0.0234,-0.0153,-0.0383,-0.0098,-0.0073,0.0015,0.0013,0.0047,-0.0076,-0.0316,-0.0316,-0.0316,-0.0316,-0.0319,-0.0264,-0.0233,-0.0183,-0.0097,0.0019,0.0078,-0.0011,0.0079,0.0126,0.0404,0.0407,0.0432,0.0306,0.015,0.0151,0.0152,0.0153,-0.0229,-0.0177,-0.0133,-0.0084,0.0026,0.0145,0.0326,0.034,0.0518,0.0374,0.045,0.0267,0.0482,0.0334,0.0167,0.0165,0.0163,0.0162,0.016,-0.0139,-0.0108,-0.0087,0.0029,0.019,0.0306,0.055,0.0641,0.0697,0.0807,0.0756,0.0751,0.0609,0.0832,0.0833,0.0834,0.0835,0.0836,0.0837,-0.005,-0.002,0.0054,0.0156,0.0247,0.0432,0.0679,0.0826,0.098,0.0996,0.0995,0.0701,0.061,0.0569,0.0853,0.085,0.0848,0.0846,0.0845,0.0068,0.0052,0.0175,0.025,0.0463,0.068,0.0841,0.112,0.1257,0.1344,0.1084,0.1109,0.1031,0.1,0.0968,0.1339,0.1339,0.1339,0.1339,0.0138,0.0141,0.0311,0.0458,0.0655,0.0825,0.1159,0.1362,0.1372,0.1323,0.122,0.1057,0.1042,0.0951,0.0922,0.0882,0.1222,0.1222,0.1221,0.0228,0.0264,0.041,0.0536,0.0752,0.0994,0.1311,0.1578,0.1459,0.12,0.1059,0.1064,0.0796,0.0782,0.0602,0.0571,0.0489,0,0]}],[{"header":{"parameterUnit":"m.s-1","parameterCategory":2,"la1":30.2992,"la2":30.254,"lo1":-89.0895,"lo2":-89.0443,"dy":0.0025,"dx":0.0025,"nx":19,"ny":19,"refTime":"2026-05-08T03:00:00:Z","depth":"2","parameterNumber":2,"parameterNumberName":"U-component_of_CURRENTS"},"data":[0,0,0,0.1096,0.1098,0.1191,0.1191,0.1355,0.1356,0,0,0,0,0,0,0,0,0,0,0,0.1072,0.1073,0.1096,0.1098,0.1191,0.1191,0.1354,0.1356,0,0,0,0,0,0,0,0,0,0,0,0.1072,0.1073,0.1073,0.1099,0.1191,0.1191,0.1354,0.1275,0,0,0,0,0,0,0,0,0,0,0.1181,0.1147,0.1072,0.1074,0.1099,0.119,0.1191,0.1271,0.128,0.1323,0,0.1338,0,0.1346,0.1367,0.1368,0,0,0,0.1108,0.1139,0.1163,0.1074,0.11,0.119,0.1152,0.1276,0.1286,0.1335,0.134,0.1346,0.1348,0.1368,0.1369,0.16,0.1602,0,0,0.1102,0.1093,0.1156,0.117,0.1127,0.1149,0.1154,0.1282,0.1296,0.1341,0.135,0.1351,0.1369,0.1371,0.1599,0.1601,0,0,0,0.1082,0.1089,0.1109,0.1164,0.1174,0.1151,0.1158,0.129,0.1297,0.1351,0.1353,0.137,0.1372,0.1598,0.16,0.1645,0,0,0,0.1079,0.1076,0.1107,0.1103,0.1171,0.1226,0.1163,0.1288,0.1302,0.1352,0.137,0.1374,0.1596,0.1599,0.1641,0.1648,0,0,0,0.1067,0.1075,0.1086,0.1102,0.1136,0.1224,0.1238,0.1291,0.1303,0.1368,0.1374,0.1595,0.1598,0.1637,0.1642,0.1682,0,0,0,0.1053,0.1108,0.1086,0.116,0.1135,0.1252,0.1237,0.1333,0.1396,0.1371,0.1597,0.16,0.1636,0.1639,0.1679,0.1656,0.167,0,0,0.112,0.1116,0.1164,0.1147,0.1255,0.124,0.1371,0.1436,0.1457,0.1556,0.1561,0.1642,0.1642,0.1682,0.1834,0.1842,0,0,0,0.1186,0.1213,0.1245,0.1299,0.1362,0.1417,0.1479,0.1505,0.1601,0.1504,0.1692,0.1692,0.1714,0.1696,0.1704,0.1614,0.1614,0.1614,0.1613,0.1258,0.1292,0.1362,0.1412,0.1483,0.1564,0.1618,0.1671,0.1689,0.1744,0.1766,0.1878,0.1862,0.1867,0.1816,0.1817,0.1817,0.1817,0.1817,0.1323,0.1336,0.1403,0.1478,0.1548,0.1656,0.1756,0.1781,0.1879,0.1859,0.188,0.1792,0.1877,0.1822,0.1821,0.182,0.182,0.1819,0.1819,0.131,0.131,0.1373,0.1457,0.1566,0.1675,0.1758,0.1842,0.1921,0.1961,0.1947,0.1945,0.1868,0.1983,0.1983,0.1983,0.1984,0.1984,0.1984,0.1231,0.1289,0.132,0.1419,0.1477,0.1583,0.1756,0.1833,0.1953,0.2001,0.2001,0.1933,0.1928,0.188,0.1988,0.1987,0.1987,0.1986,0.1986,0.1139,0.1178,0.1216,0.1264,0.1389,0.1452,0.1632,0.1838,0.1941,0.2,0.2021,0.2019,0.1997,0.199,0.1945,0.2063,0.2063,0.2063,0.2063,0.1052,0.108,0.1125,0.1178,0.1256,0.1388,0.1511,0.1652,0.1843,0.1855,0.1863,0.1805,0.1808,0.177,0.1769,0.1716,0.1775,0.1774,0.1774,0.0958,0.1006,0.1011,0.1114,0.1205,0.1321,0.1409,0.147,0.1574,0.1753,0.172,0.2062,0.1999,0.1995,0.1952,0.1944,0.1866,0,0]},{"header":{"parameterUnit":"m.s-1","parameterCategory":2,"la1":30.2992,"la2":30.254,"lo1":-89.0895,"lo2":-89.0443,"dy":0.0025,"dx":0.0025,"nx":19,"ny":19,"refTime":"2026-05-08T03:00:00:Z","depth":"2","parameterNumber":3,"parameterNumberName":"V-component_of_CURRENTS"},"data":[0,0,0,0.0049,0.0045,-0.0179,-0.018,-0.0368,-0.0369,0,0,0,0,0,0,0,0,0,0,0,0.0124,0.0122,0.005,0.0045,-0.0179,-0.018,-0.0368,-0.0369,0,0,0,0,0,0,0,0,0,0,0,0.0124,0.0123,0.0121,0.0044,-0.0178,-0.018,-0.0368,-0.0227,0,0,0,0,0,0,0,0,0,0,-0.0024,0.0027,0.0123,0.0121,0.0043,-0.0178,-0.018,-0.0222,-0.0236,-0.0234,0,-0.0268,0,-0.0313,-0.0378,-0.0379,0,0,0,0.0029,0.0039,-0.0008,0.0121,0.0041,-0.0178,-0.0082,-0.023,-0.0246,-0.0252,-0.0272,-0.0279,-0.0317,-0.0379,-0.038,-0.0432,-0.0431,0,0,0.0041,0.007,0.0002,-0.0018,-0.0015,-0.0075,-0.0089,-0.0241,-0.0262,-0.0272,-0.0285,-0.032,-0.038,-0.0381,-0.0432,-0.0432,0,0,0,0.0087,0.0078,0.0032,-0.001,-0.0053,-0.0081,-0.0097,-0.0256,-0.0268,-0.0287,-0.0322,-0.0381,-0.0382,-0.0433,-0.0432,-0.0371,0,0,0,0.0094,0.0106,0.0038,0.005,-0.0051,-0.0173,-0.0108,-0.0258,-0.0277,-0.0321,-0.0381,-0.0384,-0.0433,-0.0432,-0.0374,-0.0347,0,0,0,0.0134,0.011,0.0088,0.0053,-0.0035,-0.0172,-0.0195,-0.0264,-0.0296,-0.0379,-0.0384,-0.0434,-0.0432,-0.0377,-0.0351,-0.031,0,0,0,0.0166,0.0111,0.0088,0.0009,-0.0033,-0.0139,-0.0195,-0.0296,-0.0366,-0.0382,-0.0433,-0.0432,-0.0377,-0.0354,-0.0313,-0.0169,-0.0145,0,0,0.0117,0.0105,0.0059,0.0034,-0.0058,-0.011,-0.0179,-0.0295,-0.0341,-0.038,-0.0383,-0.0373,-0.0351,-0.031,-0.011,-0.0088,0,0,0,0.0057,0.0032,-0.0004,-0.0067,-0.0134,-0.016,-0.0261,-0.028,-0.0332,-0.0376,-0.0369,-0.0358,-0.0334,-0.0253,-0.0235,-0.0427,-0.0427,-0.0427,-0.0428,0.002,-0.001,-0.0067,-0.0101,-0.0147,-0.0203,-0.0221,-0.0252,-0.0309,-0.0303,-0.0305,-0.0229,-0.0141,-0.0126,-0.0303,-0.0303,-0.0302,-0.0302,-0.0302,-0.0027,-0.0051,-0.007,-0.0129,-0.0134,-0.0173,-0.0179,-0.0199,-0.0192,-0.0241,-0.0221,-0.0189,-0.0102,-0.0297,-0.0298,-0.0299,-0.0299,-0.03,-0.03,-0.0037,-0.004,-0.0076,-0.0106,-0.0119,-0.0136,-0.0078,-0.0107,-0.0139,-0.0116,-0.0038,-0.0037,-0.0192,-0.0109,-0.0108,-0.0108,-0.0108,-0.0107,-0.0107,-0.0019,-0.0044,-0.0046,-0.0075,-0.0071,-0.0045,-0.0019,0.0015,0.0053,0.0045,0.0046,-0.0164,-0.017,-0.0181,-0.0102,-0.0103,-0.0104,-0.0104,-0.0105,-0.001,-0.0009,-0.0,0.0006,0.0053,0.0202,0.0187,0.0314,0.0299,0.0347,0.0143,0.0135,0.013,0.0116,0.0112,0.0262,0.0262,0.0262,0.0262,0.0021,0.0015,0.0063,0.012,0.0216,0.0327,0.0625,0.0674,0.0552,0.0419,0.0412,0.04,0.0384,0.0388,0.0368,0.0367,0.0583,0.0583,0.0584,0.0059,0.0065,0.0124,0.0175,0.0298,0.0535,0.0902,0.1003,0.0673,0.0588,0.0382,0.03,0.0262,0.0244,0.0229,0.0206,0.0195,0,0]}],[{"header":{"parameterUnit":"m.s-1","parameterCategory":2,"la1":30.2992,"la2":30.254,"lo1":-89.0895,"lo2":-89.0443,"dy":0.0025,"dx":0.0025,"nx":19,"ny":19,"refTime":"2026-05-08T03:00:00:Z","depth":"4","parameterNumber":2,"parameterNumberName":"U-component_of_CURRENTS"},"data":[0,0,0,0.0371,0.037,0.0343,0.0343,0.0488,0.049,0,0,0,0,0,0,0,0,0,0,0,0.0391,0.0391,0.0371,0.037,0.0343,0.0343,0.0488,0.049,0,0,0,0,0,0,0,0,0,0,0,0.0391,0.0391,0.039,0.037,0.0343,0.0343,0.0487,0.0466,0,0,0,0,0,0,0,0,0,0,0.0471,0.0456,0.0391,0.039,0.037,0.0343,0.0343,0.0463,0.0467,0.0549,0,0.0539,0,0.0514,0.0503,0.0503,0,0,0,0.0381,0.0452,0.0445,0.039,0.0369,0.0343,0.0358,0.0464,0.0469,0.0555,0.054,0.0544,0.0516,0.0504,0.0505,0.0704,0.0705,0,0,0.0383,0.0393,0.0441,0.0448,0.036,0.0359,0.0357,0.0465,0.0475,0.0541,0.0547,0.0518,0.0505,0.0507,0.0704,0.0705,0,0,0,0.038,0.0394,0.038,0.0444,0.0422,0.0358,0.0356,0.047,0.0465,0.0548,0.052,0.0506,0.0509,0.0703,0.0704,0.0794,0,0,0,0.0381,0.0391,0.0381,0.0387,0.0418,0.0419,0.0358,0.0457,0.0468,0.0519,0.0506,0.051,0.0702,0.0704,0.079,0.0782,0,0,0,0.0393,0.0392,0.0387,0.0388,0.0369,0.0416,0.0416,0.0458,0.0452,0.0503,0.0511,0.0702,0.0703,0.0786,0.0777,0.0867,0,0,0,0.0406,0.0384,0.0387,0.0356,0.0369,0.0371,0.0415,0.0447,0.0489,0.0507,0.0702,0.0704,0.0785,0.0774,0.0863,0.0651,0,0,0,0.038,0.0381,0.036,0.0361,0.033,0.0376,0.0442,0.0525,0.0551,0.068,0.0683,0.0791,0.0777,0.0866,0.0758,0,0,0,0,0.0352,0.034,0.033,0.0314,0.0326,0.0419,0.0482,0.0564,0.0698,0.058,0.0802,0.0789,0.0844,0.0709,0.0713,0.0712,0.0712,0.0712,0.0712,0.0328,0.0318,0.0298,0.031,0.0349,0.0474,0.0575,0.0709,0.0742,0.083,0.0874,0.1008,0.087,0.0909,0.091,0.091,0.0911,0.0911,0.0911,0.0292,0.028,0.0312,0.0303,0.0412,0.0526,0.0731,0.0814,0.0992,0.0974,0.1025,0.0824,0.092,0.0919,0.0917,0.0916,0.0915,0.0915,0.0914,0.0277,0.0274,0.0282,0.0315,0.0446,0.0602,0.0777,0.0949,0.1049,0.111,0.1006,0.107,0.1052,0.1176,0.1176,0.1177,0.1177,0.1177,0.1178,0.0265,0.0269,0.0284,0.0338,0.04,0.0567,0.0823,0.0899,0.1051,0.1054,0.1151,0.1097,0.1088,0.1067,0.1184,0.1183,0.1182,0.1181,0.1181,0.0229,0.0255,0.0264,0.0293,0.0403,0.0506,0.0715,0.0859,0.0949,0.0964,0.1037,0.1042,0.0986,0.0981,0.0952,0.1041,0.1038,0.1036,0,0.0217,0.0225,0.0247,0.0279,0.0342,0.0469,0.0539,0.0645,0.0817,0.0838,0.0928,0.1008,0.1012,0.0941,0.0932,0.0894,0,0,0,0.02,0.021,0.0219,0.0255,0.0312,0.0443,0.0569,0.0601,0.0817,0.0769,0.0978,0.0993,0.093,0.1202,0.113,0.1119,0.1081,0,0]},{"header":{"parameterUnit":"m.s-1","parameterCategory":2,"la1":30.2992,"la2":30.254,"lo1":-89.0895,"lo2":-89.0443,"dy":0.0025,"dx":0.0025,"nx":19,"ny":19,"refTime":"2026-05-08T03:00:00:Z","depth":"4","parameterNumber":3,"parameterNumberName":"V-component_of_CURRENTS"},"data":[0,0,0,0.0456,0.0458,0.0539,0.0539,0.0504,0.0504,0,0,0,0,0,0,0,0,0,0,0,0.0427,0.0428,0.0456,0.0458,0.0539,0.0539,0.0504,0.0504,0,0,0,0,0,0,0,0,0,0,0,0.0427,0.0428,0.0428,0.0458,0.0539,0.0539,0.0505,0.0477,0,0,0,0,0,0,0,0,0,0,0.0416,0.0418,0.0427,0.0428,0.0459,0.0538,0.0539,0.0477,0.0479,0.0429,0,0.0449,0,0.0473,0.0498,0.0498,0,0,0,0.0455,0.0417,0.0431,0.0429,0.0459,0.0538,0.0501,0.0479,0.0481,0.043,0.0449,0.0449,0.0473,0.0498,0.0498,0.0403,0.0403,0,0,0.0451,0.0444,0.0431,0.0432,0.0487,0.0499,0.0504,0.0482,0.0486,0.0449,0.0449,0.0472,0.0497,0.0497,0.0403,0.0403,0,0,0,0.044,0.0441,0.0459,0.0433,0.0458,0.0501,0.0507,0.0488,0.0492,0.0449,0.0472,0.0497,0.0496,0.0404,0.0403,0.0382,0,0,0,0.0437,0.0435,0.0457,0.0454,0.0459,0.0495,0.0513,0.0494,0.0493,0.0472,0.0497,0.0495,0.0404,0.0403,0.0383,0.0411,0,0,0,0.0422,0.0433,0.0444,0.0453,0.0489,0.0496,0.0501,0.0495,0.0506,0.0498,0.0495,0.0405,0.0404,0.0385,0.0412,0.0411,0,0,0,0.041,0.0441,0.0444,0.0481,0.0489,0.0531,0.0502,0.0529,0.0529,0.0497,0.0404,0.0403,0.0385,0.0413,0.0412,0.0433,0,0,0,0.0441,0.0444,0.0465,0.0469,0.0512,0.052,0.0535,0.052,0.0485,0.0402,0.0402,0.0383,0.0412,0.0411,0.0369,0,0,0,0,0.0469,0.0486,0.05,0.0526,0.0547,0.0556,0.055,0.0505,0.0428,0.048,0.0367,0.0387,0.0387,0.0399,0.0398,0.0398,0.0398,0.0398,0.0398,0.0502,0.0511,0.0548,0.0563,0.0586,0.0572,0.0545,0.0474,0.0432,0.0375,0.0355,0.0327,0.0335,0.032,0.032,0.032,0.032,0.032,0.032,0.0553,0.0573,0.0587,0.0634,0.0625,0.0644,0.053,0.047,0.0348,0.0316,0.0315,0.0358,0.0317,0.0318,0.0318,0.0319,0.0319,0.0319,0.0319,0.058,0.0588,0.0625,0.0675,0.071,0.0686,0.0639,0.0521,0.0369,0.0327,0.0339,0.0325,0.0344,0.0315,0.0315,0.0315,0.0315,0.0315,0.0315,0.0588,0.0616,0.0657,0.072,0.076,0.0778,0.0687,0.0596,0.0449,0.0345,0.0328,0.0326,0.0326,0.0344,0.0316,0.0316,0.0316,0.0316,0.0316,0.0598,0.0617,0.0666,0.0706,0.0777,0.0795,0.0749,0.0605,0.0495,0.0392,0.0349,0.0347,0.0368,0.0368,0.0388,0.0373,0.0373,0.0373,0,0.0589,0.0606,0.0648,0.0693,0.0726,0.0772,0.0655,0.0576,0.0443,0.044,0.0442,0.0397,0.0394,0.0423,0.0423,0.045,0,0,0,0.0574,0.059,0.0606,0.0664,0.0702,0.065,0.0623,0.0564,0.05,0.0415,0.0378,0.0377,0.0369,0.0321,0.035,0.035,0.0381,0,0]}]]